Regional Weather Roundup
Issued by NWS Charleston, WV

Home | Current Version | Previous Version | Graphics & Text | Print | Product List | Glossary On
Versions: 1 2 3 4 5 6 7 8 9 10 11 12 13 14 15 16 17 18 19 20 21 22 23 24 25 26 27 28 29 30 31 32 33 34 35 36 37 38 39 40 41 42 43 44 45 46 47 48 49 50
091
ASUS41 KRLX 162110
RWRRLX
West Virginia Regional Weather Roundup
National Weather Service Charleston WV
500 PM EDT MON OCT 16 2017

Note: "fair" indicates few or no clouds below 12,000 feet with no
significant weather and/or obstructions to visibility.

WVZ003-162200-
Northern Panhandle of West Virginia

CITY           SKY/WX    TMP DP  RH WIND       PRES   REMARKS
WHEELING       MOSUNNY   55  33  43 W8        30.23R
$$

WVZ009-162200-
Northwest West Virginia

CITY           SKY/WX    TMP DP  RH WIND       PRES   REMARKS
PARKERSBURG    MOSUNNY   57  34  41 NW9       30.27S
$$

WVZ006-162200-
Western West Virginia

CITY           SKY/WX    TMP DP  RH WIND       PRES   REMARKS
HUNTINGTON     MOSUNNY   58  36  43 N8        30.26S
$$

WVZ015-162200-
West Central West Virginia

CITY           SKY/WX    TMP DP  RH WIND       PRES   REMARKS
CHARLESTON     MOSUNNY   63  37  38 VRB6      30.24S
$$

WVZ022-031-162200-
North Central West Virginia

CITY           SKY/WX    TMP DP  RH WIND       PRES   REMARKS
CLARKSBURG     MOSUNNY   53  44  71 NE5       30.23S
MORGANTOWN     MOSUNNY   56  39  53 N7        30.23S
$$

WVZ025-035-042-045-162200-
Southern West Virginia

CITY           SKY/WX    TMP DP  RH WIND       PRES   REMARKS
BECKLEY        CLOUDY    52  37  56 N7        30.22F
LOGAN            N/A     55  36  47 VRB5      30.24S
BLUEFIELD      PTSUNNY   51  32  48 NW9G18    30.22F
LEWISBURG      PTSUNNY   55  36  49 N7G20     30.21F
$$

WVZ047-162200-
Northern Mountains of West Virginia

CITY           SKY/WX    TMP DP  RH WIND       PRES   REMARKS
ELKINS         LGT RAIN  49  41  74 N5        30.23S
$$

WVZ052-162200-
Eastern Panhandle of West Virginia

CITY           SKY/WX    TMP DP  RH WIND       PRES   REMARKS
MARTINSBURG    SUNNY     62  32  32 N15       30.14R
PETERSBURG     SUNNY     55  38  53 NW9G22    30.20F
$$




USA.gov is the U.S. government's official web portal to all federal, state and local government web resources and services.